ROBUSTA-3A (MEDITERRAN*)

Last updated on Wed Nov 05 2025 00:03:48 GMT+0000 (Coordinated Universal Time)

1 60243U 24128J 25308.46711921 .00010354 00000+0 67209-3 0 9990 2 60243 61.9869 280.4970 0056725 82.6640 278.0896 15.07238664 72491
UTC large
Height (km)
Speed (km/s)
/
Latitude / Longitude
Inclination (degrees)
Orbital Period (minutes)
Azimuth
Elevation
Range (km)
Doppler Factor

Next 0 passes for location: London (51.5072 / 0.1276)

Sorry there are no passes over London.